Weather History for La Junta, CO

Change the Weather History Date:

Friday, March 8, 2013

  Actual Average Record
Temperature  
Mean Temperature 46 °F 42 °F  
Max Temperature 65 °F 57 °F 78 °F (1974)
Min Temperature 27 °F 27 °F 1 °F (1948)
Degree Days  
Heating Degree Days 19 23  
Month to date heating degree days 176 196  
Since 1 July heating degree days 3952 4297  
Cooling Degree Days 0 0  
Month to date cooling degree days 0 0  
Year to date cooling degree days 0 0  
Moisture  
Dew Point 28 °F    
Average Humidity 49    
Maximum Humidity 75    
Minimum Humidity 22    
Precipitation  
Precipitation 0.00 in 0.02 in 0.16 in (1976)
Month to date precipitation 0.02 0.15  
Year to date precipitation 0.13 0.80  
Sea Level Pressure  
Sea Level Pressure 29.70 in    
Wind  
Wind Speed 9 mph (South)    
Max Wind Speed 20 mph    
Max Gust Speed 24 mph    
Visibility 9 miles    
Events      
T = Trace of Precipitation, MM = Missing Value Source: NWS Daily Summary

Daily Weather History Graph

Daily Weather History Graph

Search for Another Location

Airport:

Trip Planner

Search our weather history database for the weather conditions in past years. The results will help you decide how hot, cold, wet, or windy it might be!

Date:

Astronomy

Mar. 08, 2013 Rise Set
Actual Time 6:15 AM MST 5:54 PM MST
Civil Twilight 5:48 AM MST 6:21 PM MST
Nautical Twilight 5:18 AM MST 6:51 PM MST
Astronomical Twilight 4:47 AM MST 7:22 PM MST
Moon 3:58 AM MST (3/8) 2:54 PM MST (3/8)
Length of Visible Light 12h 32m
Length of Day
11h 39m
Waning Crescent, 11% of the Moon is Illuminated
Mar 8
Waning Crescent
Mar 11
New
Mar 19
First Quarter
Mar 27
Full
Apr 2
Last Quarter

Hourly Weather History & Observations

Time (MST) Temp. Windchill Dew Point Humidity Pressure Visibility Wind Dir Wind Speed Gust Speed Precip Events Conditions
12:53 AM 37.0 °F 31.6 °F 25.0 °F 62% 29.78 in 10.0 mi NNW 6.9 mph - N/A   Clear
1:53 AM 36.0 °F 32.1 °F 25.0 °F 64% 29.81 in 10.0 mi Variable 4.6 mph - N/A   Clear
2:53 AM 34.0 °F 24.6 °F 23.0 °F 64% 29.80 in 10.0 mi West 13.8 mph - N/A   Clear
3:53 AM 34.0 °F 28.8 °F 24.1 °F 67% 29.79 in 10.0 mi Variable 5.8 mph 17.3 mph N/A   Clear
4:53 AM 33.1 °F 25.5 °F 23.0 °F 66% 29.81 in 10.0 mi West 9.2 mph - N/A   Clear
5:53 AM 27.0 °F 21.6 °F 19.9 °F 75% 29.84 in 10.0 mi WNW 4.6 mph - N/A   Clear
6:53 AM 32.0 °F 24.2 °F 24.1 °F 73% 29.86 in 10.0 mi NW 9.2 mph - N/A   Clear
7:53 AM 37.0 °F 31.6 °F 25.0 °F 62% 29.85 in 10.0 mi South 6.9 mph - N/A   Clear
8:53 AM 43.0 °F 39.5 °F 28.0 °F 56% 29.85 in 10.0 mi East 5.8 mph - N/A   Clear
9:53 AM 46.0 °F 44.8 °F 28.0 °F 50% 29.82 in 10.0 mi Variable 3.5 mph - N/A   Clear
10:53 AM 53.1 °F - 28.9 °F 40% 29.80 in 10.0 mi East 6.9 mph - N/A   Clear
11:53 AM 55.0 °F - 28.0 °F 35% 29.76 in 10.0 mi East 6.9 mph - N/A   Clear
12:53 PM 60.1 °F - 28.0 °F 30% 29.69 in 10.0 mi Variable 5.8 mph - N/A   Clear
1:53 PM 63.0 °F - 26.1 °F 25% 29.65 in 10.0 mi East 11.5 mph - N/A   Clear
2:53 PM 64.0 °F - 25.0 °F 23% 29.61 in 10.0 mi ENE 15.0 mph - N/A   Clear
3:53 PM 64.0 °F - 26.1 °F 24% 29.62 in 10.0 mi North 9.2 mph - N/A   Clear
4:53 PM 63.0 °F - 26.1 °F 25% 29.58 in 10.0 mi NNE 10.4 mph - N/A   Partly Cloudy
5:53 PM 61.0 °F - 26.1 °F 26% 29.65 in 10.0 mi Calm Calm - N/A   Overcast
6:53 PM 57.9 °F - 26.1 °F 30% 29.63 in 10.0 mi ESE 4.6 mph - N/A   Scattered Clouds
7:53 PM 59.0 °F - 30.0 °F 33% 29.60 in 10.0 mi South 15.0 mph 23.0 mph N/A   Mostly Cloudy
8:14 PM 57.2 °F - 33.8 °F 41% 29.66 in 4.0 mi South 17.3 mph 23.0 mph N/A   Haze
8:36 PM 55.4 °F - 33.8 °F 44% 29.62 in 1.5 mi SSE 11.5 mph - N/A   Haze
8:47 PM 55.4 °F - 33.8 °F 44% 29.64 in 5.0 mi SSW 12.7 mph 20.7 mph N/A   Haze
8:53 PM 55.0 °F - 34.0 °F 45% 29.58 in 1.8 mi South 13.8 mph - N/A   Haze
9:02 PM 55.4 °F - 33.8 °F 44% 29.65 in 3.0 mi South 13.8 mph - N/A   Haze
9:53 PM 52.0 °F - 35.1 °F 53% 29.56 in 10.0 mi SSW 11.5 mph - N/A   Clear
10:53 PM 50.0 °F - 34.0 °F 54% 29.53 in 10.0 mi SSW 11.5 mph - N/A   Clear
11:53 PM 51.1 °F - 34.0 °F 52% 29.49 in 10.0 mi SSW 15.0 mph - N/A   Clear